Location: LDNL
(36.4545°S, 141.6685°E)
Time: 08:37:44
(UTC+10:00)

ISS - Visible Passes

Search period start: 28 May 2022 00:00
Search period end: 07 June 2022 00:00
Orbit: 414 x 421 km, 51.6° (Epoch: 27 May)

Date Brightness Start Highest point End Pass type
(mag) Time Alt. Az. Time Alt. Az. Time Alt. Az.
03 Jun -1.1 06:32:44 10° S 06:33:48 11° SSE 06:34:53 10° SE visible
05 Jun -1.6 06:32:02 11° SSW 06:34:29 20° SSE 06:37:06 10° E visible
06 Jun -1.2 05:45:47 14° SSE 05:45:59 14° SSE 05:47:57 10° ESE visible
